When you browse on this site, cookies collect data to enhance your experience and personalize the content and advertising you see.
Visit our Privacy Policy to learn more. By continuing to use the site, you agree to this use of cookies and data.
  • In France
  • List of Countries
  • For 7 days
  • Water Temperature
  • Satellite Maps
  • Weather Map
  • Weather Widgets
  • user-avatar
    Login

    Hourly Weather Canberra

    Today, 21 April, Sunday

    Time Temperature Precipitation Wind Pressure Humidity
    00:00 +15°C° 0 mm 1 mps 715 mmHg 95%
    01:00 +15°C° 0 mm 1 mps 715 mmHg 96%
    02:00 +15°C° 0 mm 1 mps 715 mmHg 96%
    03:00 +15°C° 0 mm 1 mps 715 mmHg 95%
    04:00 +15°C° 0 mm 1 mps 714 mmHg 97%
    05:00 +15°C° 0 mm 1 mps 714 mmHg 96%
    06:00 +14°C° 0 mm 0 mps 714 mmHg 96%
    07:00 +14°C° 0 mm 0 mps 714 mmHg 95%
    08:00 +16°C° 0 mm 0 mps 715 mmHg 83%
    09:00 +21°C° 0 mm 1 mps 715 mmHg 71%
    10:00 +23°C° 0 mm 1 mps 715 mmHg 60%
    11:00 +24°C° 0 mm 1 mps 715 mmHg 54%
    12:00 +25°C° 0 mm 2 mps 715 mmHg 49%
    13:00 +26°C° 0 mm 2 mps 714 mmHg 43%
    14:00 +26°C° 0 mm 2 mps 714 mmHg 44%
    15:00 +26°C° 0 mm 2 mps 714 mmHg 44%
    16:00 +26°C° 0 mm 2 mps 714 mmHg 44%
    17:00 +24°C° 0 mm 1 mps 714 mmHg 51%
    18:00 +22°C° 0 mm 1 mps 713 mmHg 58%
    19:00 +18°C° 0 mm 0 mps 713 mmHg 65%
    20:00 +17°C° 0 mm 0 mps 713 mmHg 68%
    21:00 +19°C° 0 mm 1 mps 713 mmHg 72%
    22:00 +18°C° 0 mm 1 mps 713 mmHg 75%
    23:00 +18°C° 0 mm 1 mps 713 mmHg 78%

    Tomorrow, 22 April, Monday

    Time Temperature Precipitation Wind Pressure Humidity
    00:00 +15°C° 0 mm 0 mps 713 mmHg 82%
    01:00 +15°C° 0 mm 0 mps 713 mmHg 85%
    02:00 +15°C° 0 mm 0 mps 713 mmHg 85%
    03:00 +16°C° 0 mm 1 mps 713 mmHg 85%
    04:00 +16°C° 0 mm 1 mps 713 mmHg 85%
    05:00 +16°C° 0 mm 1 mps 713 mmHg 85%
    06:00 +16°C° 0 mm 1 mps 714 mmHg 85%
    07:00 +16°C° 0 mm 1 mps 714 mmHg 85%
    08:00 +19°C° 0 mm 1 mps 714 mmHg 78%
    09:00 +19°C° 0 mm 2 mps 715 mmHg 70%
    10:00 +21°C° 0 mm 2 mps 715 mmHg 62%
    11:00 +23°C° 0 mm 2 mps 715 mmHg 57%
    12:00 +24°C° 0 mm 2 mps 715 mmHg 52%
    13:00 +25°C° 0 mm 2 mps 715 mmHg 47%
    14:00 +25°C° 0.5 mm 2 mps 715 mmHg 51%
    15:00 +24°C° 0.5 mm 1 mps 715 mmHg 55%
    16:00 +23°C° 0.5 mm 1 mps 715 mmHg 58%
    17:00 +20°C° 0.4 mm 2 mps 715 mmHg 69%
    18:00 +18°C° 0.4 mm 2 mps 715 mmHg 80%
    19:00 +17°C° 0.4 mm 2 mps 716 mmHg 90%
    20:00 +16°C° 0 mm 2 mps 716 mmHg 92%
    21:00 +16°C° 0 mm 2 mps 716 mmHg 94%
    22:00 +15°C° 0 mm 2 mps 716 mmHg 96%
    23:00 +15°C° 0 mm 2 mps 716 mmHg 95%

    Day after tomorrow, 23 April, Tuesday

    Time Temperature Precipitation Wind Pressure Humidity
    00:00 +15°C° 0 mm 2 mps 717 mmHg 95%
    01:00 +15°C° 0 mm 2 mps 717 mmHg 95%
    02:00 +15°C° 0 mm 2 mps 716 mmHg 94%
    03:00 +15°C° 0 mm 2 mps 716 mmHg 93%
    04:00 +15°C° 0 mm 1 mps 716 mmHg 92%
    05:00 +15°C° 0 mm 1 mps 716 mmHg 92%
    06:00 +15°C° 0 mm 1 mps 717 mmHg 92%
    07:00 +15°C° 0 mm 1 mps 717 mmHg 92%
    08:00 +17°C° 0 mm 2 mps 717 mmHg 84%
    09:00 +18°C° 0 mm 2 mps 718 mmHg 77%
    10:00 +20°C° 0 mm 2 mps 718 mmHg 69%
    11:00 +20°C° 0 mm 2 mps 718 mmHg 66%
    12:00 +21°C° 0 mm 3 mps 718 mmHg 63%
    13:00 +21°C° 0 mm 3 mps 717 mmHg 60%
    14:00 +21°C° 0 mm 3 mps 717 mmHg 61%
    15:00 +21°C° 0 mm 2 mps 717 mmHg 62%
    16:00 +21°C° 0 mm 2 mps 716 mmHg 62%
    17:00 +19°C° 0 mm 2 mps 716 mmHg 72%
    18:00 +17°C° 0 mm 2 mps 716 mmHg 82%
    19:00 +15°C° 0 mm 2 mps 717 mmHg 92%
    20:00 +15°C° 0 mm 1 mps 717 mmHg 93%
    21:00 +14°C° 0 mm 1 mps 717 mmHg 95%
    22:00 +14°C° 0 mm 1 mps 717 mmHg 96%
    23:00 +14°C° 0 mm 1 mps 717 mmHg 96%

    24 April, Wednesday

    Time Temperature Precipitation Wind Pressure Humidity
    00:00 +14°C° 0 mm 1 mps 716 mmHg 96%
    01:00 +14°C° 0 mm 1 mps 716 mmHg 96%
    02:00 +14°C° 0 mm 1 mps 716 mmHg 96%
    03:00 +14°C° 0 mm 1 mps 716 mmHg 96%
    04:00 +13°C° 0 mm 1 mps 715 mmHg 95%
    05:00 +12°C° 0 mm 0 mps 716 mmHg 96%
    06:00 +12°C° 0 mm 0 mps 716 mmHg 96%
    07:00 +11°C° 0 mm 0 mps 716 mmHg 96%
    08:00 +15°C° 0 mm 1 mps 716 mmHg 85%
    09:00 +19°C° 0 mm 1 mps 717 mmHg 73%
    10:00 +22°C° 0 mm 1 mps 717 mmHg 62%
    11:00 +23°C° 0 mm 1 mps 717 mmHg 57%
    12:00 +24°C° 0 mm 2 mps 716 mmHg 52%
    13:00 +25°C° 0 mm 3 mps 716 mmHg 48%
    14:00 +25°C° 0 mm 3 mps 715 mmHg 49%
    15:00 +24°C° 0 mm 3 mps 715 mmHg 49%
    16:00 +24°C° 0 mm 3 mps 714 mmHg 50%
    17:00 +21°C° 0 mm 3 mps 714 mmHg 59%
    18:00 +19°C° 0 mm 2 mps 714 mmHg 67%
    19:00 +17°C° 0 mm 2 mps 714 mmHg 76%
    20:00 +16°C° 0 mm 1 mps 714 mmHg 80%
    21:00 +16°C° 0 mm 1 mps 714 mmHg 83%
    22:00 +15°C° 0 mm 1 mps 714 mmHg 87%
    23:00 +15°C° 0 mm 1 mps 714 mmHg 88%

    25 April, Thursday

    Time Temperature Precipitation Wind Pressure Humidity
    00:00 +14°C° 0 mm 1 mps 714 mmHg 88%
    01:00 +14°C° 0 mm 1 mps 713 mmHg 89%
    02:00 +14°C° 0 mm 1 mps 713 mmHg 90%
    03:00 +13°C° 0 mm 1 mps 713 mmHg 91%
    04:00 +13°C° 0 mm 1 mps 713 mmHg 92%
    05:00 +13°C° 0 mm 1 mps 713 mmHg 92%
    06:00 +12°C° 0 mm 1 mps 713 mmHg 92%
    07:00 +11°C° 0 mm 0 mps 714 mmHg 91%
    08:00 +15°C° 0 mm 1 mps 714 mmHg 76%
    09:00 +19°C° 0 mm 1 mps 715 mmHg 61%
    10:00 +22°C° 0 mm 1 mps 715 mmHg 46%
    11:00 +23°C° 0 mm 2 mps 715 mmHg 40%
    12:00 +24°C° 0 mm 2 mps 714 mmHg 34%
    13:00 +25°C° 0 mm 3 mps 714 mmHg 28%
    14:00 +25°C° 0 mm 3 mps 714 mmHg 30%
    15:00 +24°C° 0 mm 3 mps 713 mmHg 32%
    16:00 +23°C° 0 mm 4 mps 713 mmHg 34%
    17:00 +20°C° 0 mm 3 mps 713 mmHg 40%
    18:00 +18°C° 0 mm 3 mps 713 mmHg 46%
    19:00 +15°C° 0 mm 2 mps 713 mmHg 52%
    20:00 +14°C° 0 mm 2 mps 713 mmHg 55%
    21:00 +13°C° 0 mm 2 mps 713 mmHg 58%
    22:00 +12°C° 0 mm 1 mps 713 mmHg 61%
    23:00 +11°C° 0 mm 1 mps 713 mmHg 63%

    26 April, Friday

    Time Temperature Precipitation Wind Pressure Humidity
    00:00 +11°C° 0 mm 1 mps 712 mmHg 65%
    01:00 +10°C° 0 mm 1 mps 712 mmHg 68%
    02:00 +10°C° 0 mm 1 mps 712 mmHg 69%
    03:00 +10°C° 0 mm 1 mps 712 mmHg 69%
    04:00 +9°C° 0 mm 2 mps 712 mmHg 70%
    05:00 +9°C° 0 mm 2 mps 712 mmHg 71%
    06:00 +9°C° 0 mm 2 mps 712 mmHg 73%
    07:00 +9°C° 0 mm 2 mps 713 mmHg 74%
    08:00 +13°C° 0 mm 2 mps 713 mmHg 62%
    09:00 +16°C° 0 mm 2 mps 714 mmHg 51%
    10:00 +19°C° 0 mm 2 mps 714 mmHg 39%
    11:00 +20°C° 0 mm 2 mps 714 mmHg 34%
    12:00 +22°C° 0 mm 3 mps 714 mmHg 30%
    13:00 +24°C° 0 mm 3 mps 713 mmHg 25%
    14:00 +22°C° 0 mm 3 mps 713 mmHg 27%
    15:00 +22°C° 0 mm 3 mps 713 mmHg 30%
    16:00 +21°C° 0 mm 4 mps 713 mmHg 32%
    17:00 +18°C° 0 mm 3 mps 713 mmHg 41%
    18:00 +16°C° 0 mm 2 mps 714 mmHg 50%
    19:00 +13°C° 0 mm 1 mps 714 mmHg 58%
    20:00 +12°C° 0 mm 1 mps 714 mmHg 66%
    21:00 +11°C° 0 mm 1 mps 714 mmHg 73%
    22:00 +10°C° 0 mm 1 mps 714 mmHg 81%
    23:00 +10°C° 0 mm 1 mps 714 mmHg 83%
    Show more